SCP
0 0 0 -0 -0 0 -0 -0 0 0 0 0 0 -0 -0 -0 -0 -0 -0 -0 -0 0 0 0 0 0 0 0 0 0 0 0
-0 -0 -0 -0 -0 0 -0 0 0 0 0 0 0 0 0 -0 -0 -0 -0 -0 -0 0 0 0 0 0 0 0 0 0 0 -0
-0 0 0 0 0 0 -0 0 0 0 -0 0 0 0 -0 -0 -0 -0 -0 -0 -0 0 0 0 0 0 0 0 0 0 -0 -0
-0 0 0 0 0 0 0 0 0 0 0 0 0 0 -0 -0 -0 -0 -0 -0 -0 0 0 0 -0 -0 0 0 0 0 0 -0
-0 0 -0 0 0 -0 0 0 0 0 0 0 0 0 -0 -0 -0 -0 -0 -0 -0 -0 0 -0 -0 -0 -0 -0 -0 -0 0 0
-0 0 0 0 0 0 0 -0 0 0 0 0 -0 0 -0 -0 -0 -0 -0 -0 -0 0 -0 0 0 -0 -0 -0 -0 -0 -0 -0
-0 0 0 0 0 0 0 0 0 0 0 -0 -0 -0 -0 -0 -0 -0 -0 -0 -0 -0 0 0 -0 -0 0 -0 -0 -0 0 -0
-0 0 0 0 0 0 0 0 0 0 -0 -0 -0 -0 -0 -0 -0 -0 -0 -0 -0 0 -0 -0 0 -0 0 -0 -0 -0 -0 -0
0 0 0 0 0 0 0 0 0 -0 -0 -0 -0 -0 -0 0 0 0 -0 0 -0 -0 -0 -0 0 0 0 0 0 0 0 -0
0 0 0 0 0 0 0 0 0 -0 -0 -0 -0 -0 -0 0 0 0 0 0 0 0 0 -0 0 0 0 0 0 0 0 0
0 0 0 0 0 0 1 1 1 0 -0 -0 -0 -0 0 0 0 0 0 0 0 0 0 0 0 0 0 0 0 0 0 0
0 0 0 0 0 1 1 1 1 0 0 0 0 0 0 0 0 0 0 0 0 0 0 0 0 0 0 0 0 0 0 0
0 0 0 0 0 1 1 1 1 0 0 0 0 0 0 0 0 0 0 0 0 0 0 0 0 0 0 0 0 0 0 0
0 0 0 0 0 0 1 0 1 1 1 1 1 0 0 0 0 0 0 0 0 0 0 0 0 0 0 0 0 0 0 0
-0 0 0 0 0 0 0 0 1 1 0 0 0 0 0 0 0 0 0 0 0 0 0 0 0 0 0 0 0 0 0 0
0 0 0 0 0 1 1 1 1 1 0 0 0 0 0 0 0 0 0 0 0 0 0 0 0 0 0 0 0 0 0 0
0 0 0 0 0 0 0 0 1 0 1 0 0 0 0 0 0 0 0 0 0 0 0 0 0 0 0 0 0 0 0 0
0 0 0 0 0 -0 1 1 1 1 1 1 0 0 0 0 0 0 0 0 0 0 0 0 0 0 0 0 0 0 0 0
0 0 0 0 0 0 0 0 1 1 1 1 0 0 0 0 0 0 0 0 0 0 0 0 0 0 0 0 0 0 0 0
0 0 0 0 0 0 0 0 1 1 1 1 0 0 0 0 0 0 0 0 0 0 0 0 0 0 0 0 0 0 0 0
Wind_Speed_500mb
22 22 6 34 25 21 22 20 18 11 18 21 17 27 34 33 40 32 34 30 30 34 32 31 30 32 33 32 30 30 28 27
23 32 28 13 25 19 28 22 12 15 25 19 20 21 22 41 38 34 31 29 35 35 34 32 32 33 32 29 27 26 26 25
36 24 2 7 8 18 26 16 20 18 27 19 13 24 41 43 37 37 31 29 33 36 34 34 34 34 31 27 25 24 23 22
32 20 13 2 8 9 11 16 13 16 30 14 23 35 39 38 36 37 34 30 30 36 36 35 34 34 31 26 25 23 21 19
44 14 12 6 13 20 22 27 12 26 20 24 32 37 38 38 34 32 36 30 30 32 35 35 35 33 31 26 24 22 20 17
40 21 6 13 19 20 14 29 15 6 15 27 47 45 41 38 37 29 31 27 28 28 25 26 29 33 32 28 25 21 18 13
44 31 4 21 27 16 9 21 16 10 19 48 54 48 42 43 40 34 31 31 29 25 27 24 21 26 28 25 22 18 15 11
41 25 7 30 23 26 17 25 19 23 37 54 53 49 43 44 39 34 33 31 29 28 26 24 26 18 19 14 12 6 8 13
44 24 14 12 27 31 29 22 26 36 45 51 50 45 41 39 35 34 31 28 27 26 25 22 19 19 15 17 16 17 14 13
50 16 13 30 19 32 29 4 44 41 45 48 47 43 41 38 35 34 34 32 31 29 29 28 21 23 19 20 19 15 13 14
53 34 18 28 30 25 30 12 34 44 46 45 43 40 37 35 33 32 32 31 28 26 24 25 26 20 20 21 18 20 15 16
30 40 37 27 32 22 25 28 36 44 47 44 42 40 37 36 35 32 31 30 30 27 26 22 22 23 22 20 31 17 15 19
31 33 38 25 38 28 42 39 39 40 41 42 40 38 38 36 34 34 31 30 26 28 25 29 27 22 19 16 18 16 18 25
42 40 37 21 40 41 42 48 46 42 39 40 40 38 35 36 34 32 29 26 26 23 25 26 24 22 17 17 16 14 13 18
41 45 32 34 38 47 59 54 52 49 44 44 44 40 39 36 35 33 30 27 24 25 23 22 25 21 20 22 13 12 12 15
34 35 33 39 39 34 45 50 45 48 46 47 49 51 44 38 36 33 30 29 32 24 32 32 25 19 16 15 13 11 15 25
30 22 40 38 39 44 49 50 47 48 48 48 50 46 44 42 37 35 35 34 36 34 31 25 22 17 16 15 15 15 23 22
32 31 25 29 39 41 45 45 53 50 48 51 49 53 50 47 44 39 38 39 34 31 38 32 21 24 22 22 15 22 23 22
35 29 35 32 38 43 46 61 44 47 52 53 55 57 54 52 47 41 38 37 35 33 33 29 27 35 35 26 18 12 14 15
36 34 33 37 33 44 46 47 48 52 52 53 57 58 54 52 47 43 38 34 31 32 31 29 34 20 21 15 13 15 10 11
Wind_Direction_500mb
241 260 169 239 94 123 112 142 158 104 51 47 85 120 138 142 141 145 138 137 157 143 143 143 144 142 137 133 130 127 129 128
253 280 199 68 140 139 145 163 149 135 86 94 89 135 150 143 143 139 140 148 153 148 148 150 151 150 145 140 138 137 137 139
255 245 116 345 97 172 158 122 140 169 124 105 98 131 138 144 144 143 145 151 156 154 155 157 158 158 155 150 146 147 148 147
257 258 88 202 168 198 109 131 117 148 108 112 136 141 145 145 149 147 148 144 160 161 162 165 165 165 165 163 158 157 158 157
269 214 181 178 178 197 186 160 171 144 136 142 158 156 151 149 152 155 142 161 155 165 170 170 172 172 176 174 171 172 172 172
263 277 293 104 176 182 190 80 134 167 165 163 163 159 153 153 156 162 158 157 148 163 170 168 182 181 181 183 183 185 186 185
248 234 72 139 166 151 106 141 162 165 158 154 158 158 158 157 158 159 163 156 170 159 172 170 180 198 191 189 189 193 198 199
252 274 225 170 177 158 184 156 154 128 118 148 157 161 163 166 169 170 164 169 172 169 175 169 178 206 182 203 197 199 222 241
256 297 315 275 193 151 206 177 166 147 151 155 161 167 170 172 173 170 169 173 176 174 178 181 179 189 190 204 196 222 219 222
269 247 220 264 200 158 211 33 153 159 161 161 166 171 172 171 169 168 169 176 178 184 181 177 193 189 197 194 206 203 226 234
253 270 233 253 264 192 166 147 144 159 165 167 169 172 170 164 168 170 171 176 175 182 180 188 180 194 194 199 198 212 216 234
242 234 243 234 233 169 150 153 151 162 171 171 172 169 167 168 168 169 172 172 180 173 181 184 179 188 194 184 205 193 196 219
236 236 243 223 241 196 168 172 164 170 171 172 172 173 173 173 171 169 170 174 177 178 178 182 194 184 177 178 182 186 218 228
214 219 224 211 233 195 170 180 173 170 174 178 175 179 178 176 175 175 178 175 173 180 189 179 183 178 176 176 176 182 204 229
256 182 218 207 241 238 177 187 180 174 180 183 182 184 184 182 183 181 180 183 178 174 176 180 192 181 182 196 170 188 201 229
225 179 204 220 229 151 180 189 190 180 183 189 192 190 187 186 188 188 185 188 188 180 193 201 184 183 177 180 178 187 214 236
260 233 196 221 238 178 186 194 188 202 189 195 199 197 197 193 193 195 194 198 213 201 216 209 212 202 195 191 196 223 245 246
278 280 265 229 229 245 178 202 196 198 201 198 198 198 197 194 192 198 204 201 199 200 215 206 199 190 199 199 194 224 240 248
265 260 235 260 259 251 229 196 210 208 207 207 204 197 197 197 198 196 197 196 195 199 220 196 199 202 203 217 234 231 243 244
263 269 258 210 253 238 233 243 194 206 206 207 209 204 202 200 198 197 200 197 194 193 197 192 201 199 195 195 207 192 168 207
Wind_Speed_850mb
22 22 6 34 25 21 22 20 18 11 18 21 17 27 34 33 40 32 34 30 30 34 32 31 30 32 33 32 30 30 28 27
23 32 28 13 25 19 28 22 12 15 25 19 20 21 22 41 38 34 31 29 35 35 34 32 32 33 32 29 27 26 26 25
36 24 2 7 8 18 26 16 20 18 27 19 13 24 41 43 37 37 31 29 33 36 34 34 34 34 31 27 25 24 23 22
32 20 13 2 8 9 11 16 13 16 30 14 23 35 39 38 36 37 34 30 30 36 36 35 34 34 31 26 25 23 21 19
44 14 12 6 13 20 22 27 12 26 20 24 32 37 38 38 34 32 36 30 30 32 35 35 35 33 31 26 24 22 20 17
40 21 6 13 19 20 14 29 15 6 15 27 47 45 41 38 37 29 31 27 28 28 25 26 29 33 32 28 25 21 18 13
44 31 4 21 27 16 9 21 16 10 19 48 54 48 42 43 40 34 31 31 29 25 27 24 21 26 28 25 22 18 15 11
41 25 7 30 23 26 17 25 19 23 37 54 53 49 43 44 39 34 33 31 29 28 26 24 26 18 19 14 12 6 8 13
44 24 14 12 27 31 29 22 26 36 45 51 50 45 41 39 35 34 31 28 27 26 25 22 19 19 15 17 16 17 14 13
50 16 13 30 19 32 29 4 44 41 45 48 47 43 41 38 35 34 34 32 31 29 29 28 21 23 19 20 19 15 13 14
53 34 18 28 30 25 30 12 34 44 46 45 43 40 37 35 33 32 32 31 28 26 24 25 26 20 20 21 18 20 15 16
30 40 37 27 32 22 25 28 36 44 47 44 42 40 37 36 35 32 31 30 30 27 26 22 22 23 22 20 31 17 15 19
31 33 38 25 38 28 42 39 39 40 41 42 40 38 38 36 34 34 31 30 26 28 25 29 27 22 19 16 18 16 18 25
42 40 37 21 40 41 42 48 46 42 39 40 40 38 35 36 34 32 29 26 26 23 25 26 24 22 17 17 16 14 13 18
41 45 32 34 38 47 59 54 52 49 44 44 44 40 39 36 35 33 30 27 24 25 23 22 25 21 20 22 13 12 12 15
34 35 33 39 39 34 45 50 45 48 46 47 49 51 44 38 36 33 30 29 32 24 32 32 25 19 16 15 13 11 15 25
30 22 40 38 39 44 49 50 47 48 48 48 50 46 44 42 37 35 35 34 36 34 31 25 22 17 16 15 15 15 23 22
32 31 25 29 39 41 45 45 53 50 48 51 49 53 50 47 44 39 38 39 34 31 38 32 21 24 22 22 15 22 23 22
35 29 35 32 38 43 46 61 44 47 52 53 55 57 54 52 47 41 38 37 35 33 33 29 27 35 35 26 18 12 14 15
36 34 33 37 33 44 46 47 48 52 52 53 57 58 54 52 47 43 38 34 31 32 31 29 34 20 21 15 13 15 10 11
Wind_Direction_850mb
241 260 169 239 94 123 112 142 158 104 51 47 85 120 138 142 141 145 138 137 157 143 143 143 144 142 137 133 130 127 129 128
253 280 199 68 140 139 145 163 149 135 86 94 89 135 150 143 143 139 140 148 153 148 148 150 151 150 145 140 138 137 137 139
255 245 116 345 97 172 158 122 140 169 124 105 98 131 138 144 144 143 145 151 156 154 155 157 158 158 155 150 146 147 148 147
257 258 88 202 168 198 109 131 117 148 108 112 136 141 145 145 149 147 148 144 160 161 162 165 165 165 165 163 158 157 158 157
269 214 181 178 178 197 186 160 171 144 136 142 158 156 151 149 152 155 142 161 155 165 170 170 172 172 176 174 171 172 172 172
263 277 293 104 176 182 190 80 134 167 165 163 163 159 153 153 156 162 158 157 148 163 170 168 182 181 181 183 183 185 186 185
248 234 72 139 166 151 106 141 162 165 158 154 158 158 158 157 158 159 163 156 170 159 172 170 180 198 191 189 189 193 198 199
252 274 225 170 177 158 184 156 154 128 118 148 157 161 163 166 169 170 164 169 172 169 175 169 178 206 182 203 197 199 222 241
256 297 315 275 193 151 206 177 166 147 151 155 161 167 170 172 173 170 169 173 176 174 178 181 179 189 190 204 196 222 219 222
269 247 220 264 200 158 211 33 153 159 161 161 166 171 172 171 169 168 169 176 178 184 181 177 193 189 197 194 206 203 226 234
253 270 233 253 264 192 166 147 144 159 165 167 169 172 170 164 168 170 171 176 175 182 180 188 180 194 194 199 198 212 216 234
242 234 243 234 233 169 150 153 151 162 171 171 172 169 167 168 168 169 172 172 180 173 181 184 179 188 194 184 205 193 196 219
236 236 243 223 241 196 168 172 164 170 171 172 172 173 173 173 171 169 170 174 177 178 178 182 194 184 177 178 182 186 218 228
214 219 224 211 233 195 170 180 173 170 174 178 175 179 178 176 175 175 178 175 173 180 189 179 183 178 176 176 176 182 204 229
256 182 218 207 241 238 177 187 180 174 180 183 182 184 184 182 183 181 180 183 178 174 176 180 192 181 182 196 170 188 201 229
225 179 204 220 229 151 180 189 190 180 183 189 192 190 187 186 188 188 185 188 188 180 193 201 184 183 177 180 178 187 214 236
260 233 196 221 238 178 186 194 188 202 189 195 199 197 197 193 193 195 194 198 213 201 216 209 212 202 195 191 196 223 245 246
278 280 265 229 229 245 178 202 196 198 201 198 198 198 197 194 192 198 204 201 199 200 215 206 199 190 199 199 194 224 240 248
265 260 235 260 259 251 229 196 210 208 207 207 204 197 197 197 198 196 197 196 195 199 220 196 199 202 203 217 234 231 243 244
263 269 258 210 253 238 233 243 194 206 206 207 209 204 202 200 198 197 200 197 194 193 197 192 201 199 195 195 207 192 168 207